Location: American Medical Response
(33.3472°N, 96.5511°W)
Time: 11:14:05
(UTC+00:00)

Lacrosse 5 rocket - Pass Details

Date: 02 July 2022
Orbit: 455 x 628 km, 57.0° (Epoch: 07 August)

Event Time Altitude Azimuth Distance (km) Brightness Sun altitude
Rises 03:10:09 0° 331° (NNW) 2,597 6.2 -16.2°
Reaches altitude 10° 03:12:28 10° 343° (NNW) 1,740 4.8 -16.5°
Maximum altitude 03:15:57 30° 46° (NE) 974 2.5 -17.1°
Enters shadow 03:17:25 24° 83° (E) 1,158 2.6 -17.3°
